Flag for Norway Weather past 2 weeks in Askim, Norway

Now
61 °F

Scattered clouds.


Feels Like: 61 °F
Forecast: 51 / 60 °F
Wind: 8 mph from Southwest

Location: Rygge

Current Time: Aug 21, 2014 at 10:14:52 PM

Latest Report: Aug 21, 2014 at 9:50 PM


Visibility: N/A

Pressure: 29.62 "Hg

Humidity: 68%

Dew point: 50 °F

Location of AskimLocation

Historic Weather in Askim — Graph

°F

Askim temperature yesterday

Maximum temperature yesterday: 68 °F (at 1:50 PM)
Minimum temperature yesterday: 50 °F (at 6:20 AM)
Average temperature yesterday: 58 °F

Past Weeks' High & Low Weather Summary

 TemperatureHumidityPressure
High75 °F (Aug 9, 2:50 PM)100% (Aug 8, 5:50 AM)29.95 "Hg (Aug 8, 5:50 AM)
Low48 °F (Aug 18, 7:20 AM)44% (Aug 7, 4:20 PM)29.18 "Hg (Aug 18, 12:50 PM)
Average61 °F79%29.59 "Hg
* Reported Aug 6 8:20 PM — Aug 21 8:50 PM, Askim, Weather by CustomWeather, © 2014

Note: Actual official high and low records may vary slightly from our data, if they occured in-between our weather recording intervals... More about our weather records

Advertising

Askim weather history for previous 24 hours

 ConditionsComfort  
Time TempWeatherWind HumidityBarometerVisibility
8:50 PM
Aug 21
61 °FScattered clouds.6 mph68%29.62 "HgN/A
8:20 PM61 °FScattered clouds.6 mph63%29.62 "HgN/A
7:50 PM61 °FScattered clouds.6 mph63%29.62 "HgN/A
7:20 PM61 °FScattered clouds.7 mph59%29.62 "HgN/A
6:50 PM61 °FBroken clouds.8 mph63%29.65 "HgN/A
6:20 PM61 °FScattered clouds.8 mph68%29.65 "HgN/A
5:50 PM63 °FScattered clouds.10 mph64%29.62 "HgN/A
5:20 PM63 °FScattered clouds.10 mph59%29.62 "HgN/A
4:50 PM66 °FScattered clouds.12 mph52%29.62 "HgN/A
4:20 PM64 °FScattered clouds.10 mph56%29.62 "HgN/A
3:50 PM64 °FScattered clouds.9 mph56%29.62 "HgN/A
3:20 PM66 °FScattered showers. Scattered clouds.8 mph49%29.62 "HgN/A
2:50 PM66 °FScattered showers. Scattered clouds.5 mph49%29.62 "HgN/A
2:20 PM66 °FScattered clouds.6 mph52%29.62 "HgN/A
1:50 PM64 °FScattered clouds.6 mph52%29.62 "HgN/A
1:20 PM63 °FScattered clouds.6 mph56%29.62 "HgN/A
12:50 PM64 °FScattered clouds.3 mph52%29.62 "HgN/A
12:20 PM61 °FBroken clouds.7 mph72%29.62 "HgN/A
11:50 AM61 °FPartly sunny.5 mph72%29.62 "HgN/A
11:20 AM61 °FBroken clouds.3 mph68%29.62 "HgN/A
10:50 AM61 °FPartly sunny.6 mph68%29.62 "HgN/A
10:20 AM59 °FPartly sunny.3 mph77%29.59 "HgN/A
9:50 AM57 °FPartly sunny.3 mph82%29.59 "HgN/A
9:20 AM57 °FScattered clouds.3 mph82%29.59 "HgN/A
8:50 AM57 °FScattered clouds.2 mph82%29.59 "HgN/A
8:20 AM55 °FScattered clouds.1 mph88%29.56 "HgN/A
7:50 AM54 °FScattered clouds.2 mph94%29.56 "HgN/A
7:20 AM54 °FSunny.2 mph94%29.56 "Hg10 mi
6:50 AM54 °FSunny.5 mph94%29.56 "Hg10 mi
6:20 AM54 °FClear.3 mph88%29.56 "Hg10 mi
5:50 AM54 °FOvercast.5 mph94%29.53 "HgN/A
5:20 AM54 °FMostly cloudy.3 mph94%29.53 "HgN/A
4:50 AM54 °FOvercast.3 mph94%29.53 "HgN/A
4:20 AM54 °FOvercast.3 mph94%29.53 "HgN/A
3:50 AM54 °FOvercast.3 mph94%29.53 "HgN/A
3:20 AM54 °FOvercast.2 mph94%29.53 "HgN/A
2:50 AM54 °FClear.3 mph94%29.53 "Hg10 mi
2:20 AM52 °FClear.2 mph94%29.53 "Hg10 mi
1:50 AM54 °FClear.3 mph88%29.53 "Hg10 mi
1:20 AM54 °FClear.1 mph82%29.53 "Hg10 mi
12:50 AM54 °FClear.2 mph82%29.53 "Hg10 mi
12:20 AM54 °FClear.3 mph82%29.53 "Hg10 mi
11:50 PM
Aug 20
54 °FClear.2 mph82%29.53 "Hg10 mi
11:20 PM52 °FPassing clouds.3 mph88%29.50 "HgN/A
10:50 PM52 °FPassing clouds.3 mph88%29.50 "HgN/A
10:20 PM54 °FPassing clouds.2 mph82%29.50 "HgN/A
Weather by CustomWeather, © 2014

See weather overviewHow to use our weather pages